Regional Weather Roundup
Issued by NWS Wakefield, VA

Home | Current Version | Previous Version | Text Only | Print | Product List | Glossary Off
Versions: 1 2 3 4 5 6 7 8 9 10 11 12 13 14 15 16 17 18 19 20 21 22 23 24 25 26 27 28 29 30 31 32 33 34 35 36 37 38 39 40 41 42 43 44 45 46 47 48 49 50

000
ASUS41 KAKQ 030915
RWRAKQ

REGIONAL WEATHER ROUNDUP
NATIONAL WEATHER SERVICE WAKEFIELD VA
500 AM EDT WED JUN 03 2015

Note: "fair" indicates few or no clouds below 12,000 feet with no
significant weather and/or obstructions to visibility. * = Denotes
station may not report precipitation (e.g., rain,snow,etc.),
thunder or fog.

VAZ042-051-052>054-056-031000-
NORTHERN VIRGINIA

CITY           SKY/WX    TMP DP  RH WIND       PRES   REMARKS
WASH NATIONAL  DRIZZLE   60  56  86 NE13      30.13S
DULLES         CLOUDY    57  54  89 NE8       30.13S
FORT BELVOIR   CLOUDY    57  55  94 VRB2      30.13R
QUANTICO       CLOUDY    59  56  89 E16       30.12F
FREDERICKSBRG* CLOUDY    60  60 100 NE5       30.10S
STAFFORD*      LGT RAIN  56  55  95 N8        30.15S
WARRENTON      CLOUDY    58  58 100 NE5       30.12S
CULPEPER*      CLOUDY    56  55  97 CALM      30.13R
MANASSAS*        N/A    N/A N/A N/A MISG        N/A
LEESBURG*      CLOUDY    57  57 100 NE5       30.14F
WINCHESTER     CLOUDY    55  55 100 NE3       30.13F FOG
FRONT ROYAL*   CLOUDY    55  54  94 CALM      30.13R
LURAY*         CLOUDY    57  57 100 N10       30.12S
$$

VAZ048-049-060>072-079>083-031000-
CENTRAL AND SOUTH CENTRAL VIRGINIA

CITY           SKY/WX    TMP DP  RH WIND       PRES   REMARKS
RICHMOND       LGT RAIN  60  58  92 NE9       30.08S FOG
CHESTERFIELD*  NOT AVBL
PETERSBURG*    LGT RAIN  62  62 100 NE9       30.07S
HANOVER        CLOUDY    59  58  96 VRB6      30.10S FOG
TAPPAHANNOCK*  DRIZZLE   59  55  88 NE8       30.10S
QUINTON*       CLOUDY    59  58  97 CALM      30.08S
CHARLOTTSVILLE CLOUDY    57  55  93 NE9       30.11S
GORDONSVILLE*  CLOUDY    55  55 100 NE7       30.10S
ORANGE*        CLOUDY    57  55  94 N5        30.13S
LOUISA*        CLOUDY    57  57 100 NE7       30.09S FOG
BUMPASS*       CLOUDY    57  56  97 NE3       30.10S
FARMVILLE*     DRIZZLE   59  59 100 N8        30.06F
CREWE*         CLOUDY    59  57  96 N7        30.06S
FORT PICKETT*  CLOUDY    59  57  94 NE10      30.05F
CHASE CITY*    CLOUDY    61  61 100 NE5       30.04F
CLARKSVILLE*   CLOUDY    59  59 100 NE3       30.04S
SOUTH HILL*    CLOUDY    59  59  99 N6        30.09F
LAWRENCEVILLE* CLOUDY    61  61 100 NE7       30.04S
EMPORIA*       CLOUDY    61  61 100 N8        30.04F FOG
$$

VAZ088>098-031000-
SOUTHEAST VIRGINIA

CITY           SKY/WX    TMP DP  RH WIND       PRES   REMARKS
NORFOLK        CLOUDY    64  62  93 N12       30.03S FOG
VIRGINIA BEACH FOG       66  63  90 N13       30.02S VSB 1
NORFOLK NAVAL  CLOUDY    69  63  81 N18       30.05S
WEST POINT*    CLOUDY    63  60  91 N3        30.09S
SALUDA*        CLOUDY    60  58  93 N6        30.07S
NEWPORT NEWS   LGT RAIN  67  61  81 NE9       30.04F
LANGLEY AFB    CLOUDY    64  63  94 NE14      30.03S
FORT EUSTIS    CLOUDY    63 N/A N/A VRB6      30.02F
WILLIAMSBURG*  CLOUDY    64  63  94 N3        30.06S
HR EXEC AP*    CLOUDY    64  63  94 NE8       30.05S
FRANKLIN*      CLOUDY    63  63  98 NE6       30.04R FOG
WAKEFIELD      CLOUDY    63  60  90 N5        30.05S
$$

VAZ020-022-025-037-045-031000-
WEST CENTRAL AND SOUTHWEST VIRGINIA

CITY           SKY/WX    TMP DP  RH WIND       PRES   REMARKS
STAUNTON*      CLOUDY    58  56  92 NE5       30.13S FOG
WAYNESBORO*    CLOUDY    55  55  99 N8        30.11S
HOT SPRINGS VA RAIN      51  51 100 E9        30.10S VSB<1/4
LYNCHBURG      CLOUDY    57  56  96 NE13      30.08F
DANVILLE       CLOUDY    61  57  87 NE14      30.05S
SOUTH BOSTON*  CLOUDY    59  57  94 NE3       30.05S
MARTINSVILLE   CLOUDY    59  59 100 NE7       30.08S FOG
ROANOKE        LGT RAIN  58  58 100 E5        30.09S FOG
BLACKSBURG     RAIN      59  58  97 E7        30.10S
DUBLIN*        CLOUDY    60  60 100 E5        30.08S FOG
MARION*        DRIZZLE   61  60  95 E3        30.08F
HILLSVILLE*    CLOUDY    58  58  99 E5        30.08F FOG
RICHLANDS*     FOG       58  58 100 N3        30.05F VSB<1/4
WISE*          FOG       57  57 100 N5        30.07S VSB<1/4
ABINGDON*      CLOUDY    61  61 100 E6        30.02F FOG
$$

MDZ021>025-VAZ099-100-031000-
SOUTHERN MARYLAND AND THE DELMARVA PENINSULA

CITY           SKY/WX    TMP DP  RH WIND       PRES   REMARKS
PATUXENT RIVER CLOUDY    58  56  93 NE10      30.10S
BAY BRIDGE APT   N/A    N/A N/A N/A NE6       30.13F FOG
LEONARDTOWN    CLOUDY    57  54  88 NE6       30.11F
DOVER          CLOUDY    55  55 100 NE12      30.11R
GEORGETOWN     LGT RAIN  56  54  93 NE12      30.12S
EASTON         CLOUDY    57  57 100 NE8       30.15F
CAMBRIDGE      CLOUDY    59  55  88 NE6       30.10S
SALISBURY      CLOUDY    56  55  97 NE13      30.09S
OCEAN CITY     LGT RAIN  58  56  93 NE14      30.09R
WALLOPS ISLAND CLOUDY    61  60  97 NE18G24   30.07R
ACCOMACK*      CLOUDY    61  59  94 NE8       30.05S FOG
$$

NCZ012>017-030>032-031000-
NORTH CENTRAL AND EASTERN NORTH CAROLINA

CITY           SKY/WX    TMP DP  RH WIND       PRES   REMARKS
ROANOKE RAPIDS CLOUDY    63  63 100 NE7       30.02S FOG
RALEIGH        LGT RAIN  64  63  96 NE10      30.00F
ELIZABETH CITY CLOUDY    66  65  96 N8        30.01F FOG
AHOSKIE*       DRIZZLE   64  63  96 N9        30.03S
EDENTON*         N/A     64  64  99 N7        30.01S FOG
CURRITUCK*     CLOUDY    67  65  94 N8        30.02S FOG
KILL DEVIL HLS CLOUDY    65  65  99 N5        29.99S
MANTEO         CLOUDY    68  67  98 N8        30.00S
CAPE HATTERAS  CLOUDY    74  68  81 SE6       29.99S
TARBORO*       CLOUDY    69  68  94 N6        30.01S
GOLDSBORO      LGT RAIN  70  70 100 CALM      29.96F
WASHINGTON     CLOUDY    69  67  93 N8        29.99S
GREENVILLE     RAIN      70  70 100 CALM      30.01R
NEW BERN       CLOUDY    70  68  93 CALM      29.98S FOG
WILMINGTON     LGT RAIN  68  67  96 N3        29.98F
$$

VAZ048-031000-
ELSEWHERE

CITY           SKY/WX    TMP DP  RH WIND       PRES   REMARKS
HARRISBURG PA  CLOUDY    57  55  93 SE6       30.16R
BALTIMORE      CLOUDY    56  54  93 NE10      30.13F
ANNAPOLIS      CLOUDY    57  57 100 NE6       30.13S FOG
ANDREWS AFB    CLOUDY    56  56  99 NE12      30.11F
PHILADELPHIA   LGT RAIN  55  51  86 NE8       30.17S
HENDERSON NC   DRIZZLE   60  58  92 NE10      30.03F
GREENSBORO     CLOUDY    62  61  96 NE13      30.01S FOG
ROCKY MOUNT    CLOUDY    67  66  97 N9        30.01R
$$

VAZ100-031000-
MARINE

STATION/POSITION TIME  TEMP    WIND        PRES    WAVE   SWELL
                       AIR SEA DIR/SP/G            HT/PER HT/PER
                 (UTC) (F)     (DEG/KT/KT) (MB)    (FT/S) (FT/S)
BRANDYWINE LGT   0800   57 64   60/ 19/ 22 1020.0
CAPE MAY NJ      0800   55 63   40/  7/ 12 1019.6R
LEWES DE         0800   57 62   40/ 16/ 18 1019.9
15NM E FENWICK I 0850   60 64              1017.7R   7/ 6
OCEAN-CITY-INLET 0800   59 57   30/  9/ 13 1018.5
WACHAPREAGUE VA  0800   61 71   10/  8/ 14 1017.6
THOMAS POINT MD  0900   56 71   60/ 13/ 15 1020.6S
GOOSES REEF MD   0900   59 71   60/ 14/ 17 1020.6S   2/ 3
COVE POINT MD    0800   58      50/ 10/ 14 1020.1F
SOLOMONS ISLAND  0800      73                N/A
BISHOPS HEAD MD  0800   58 69   40/ 15/ 20 1018.6
PINEY POINT MD   0800           70/  6/  8   N/A
CAMBRIDGE MD     0800   58 74   30/ 13/ 16 1019.2
LEWISETTA VA     0800   61 72              1018.5
RAPPAHANNOCK LGT 0800           30/ 17/ 18 1018.1F
STINGRAY PT      0900   64 72   40/ 16/ 19 1017.4F   2/ 3
YORK RVR RNG VA  0800   64      30/ 16/ 19 1016.8
YORKTOWN VA      0800   63 74   30/ 11/ 13 1017.3
JAMESTOWN VA     0900   62 79  350/  6/ 10   N/A
DOMINION TERM VA 0800   65      50/  8/ 14 1017.2F
KIPTOPEKE VA     0800      71   40/ 11/ 15   N/A
CHES BAY BRIDGE  0800   63 67   10/ 14/ 18 1016.3
CAPE HENRY VA    0800   63      10/ 17/ 19 1015.4
CHESAPEAKE LGHT  0800   66      20/ 16/ 17 1016.7F
WILLOUBY STN VA  0818   64      10/ 15/ 17 1017.7F
CAPE HENRY BUOY  0828      65                N/A     5/ 7
1ST LANDING BUOY 0900      65              1016.5R
CAPE CHARLES BUO 0826      65                N/A     4/ 7   2/ 7
OFFSHORE WE BUOY 0811      70                N/A     5/ 6   3/ 8
64NM E OF VA BCH 0850   72 73  280/  4/  6 1015.1F   4/ 7   3/ 7
DUCK PIER NC     0800   62 58  340/ 14/ 15 1015.1
44100 DUCK FRF   0824      71                N/A     4/ 7
44056 DUCK FRF   0811      59                N/A     4/ 7
OREGON INLET NC  0800   69 71  350/  4/  7 1015.5F
HATTERAS NC      0800   74 78   80/  3/  4 1014.7F
DIAMOND SHLS NC  0850   74 79  240/ 10/ 12 1015.4    3/ 8   2/ 8
CAPE LOOKOUT NC  0900   72     120/ 14/ 15 1014.6F
$$



USA.gov is the U.S. government's official web portal to all federal, state and local government web resources and services.